• en Belgique
  • Liste des pays
  • À 7 jours
  • Température de l'eau
  • Carte satellitaire
  • Carte météo
  • Widgets météo
  • user-avatar
    Se connecter

    Météo par heure à Newcastle

    Ce jour, 20 Octobre, Vendredi

    Heure Température Précipitation Vent Pression Humidité
    00:00 +19°C° 0 mm 4 m/s 763 mmHg 83%
    01:00 +19°C° 0 mm 4 m/s 763 mmHg 83%
    02:00 +19°C° 0 mm 4 m/s 763 mmHg 78%
    03:00 +19°C° 0 mm 3 m/s 763 mmHg 73%
    04:00 +20°C° 0 mm 3 m/s 762 mmHg 68%
    05:00 +20°C° 0,2 mm 3 m/s 763 mmHg 72%
    06:00 +20°C° 0,2 mm 4 m/s 763 mmHg 76%
    07:00 +20°C° 0,2 mm 4 m/s 763 mmHg 80%
    08:00 +20°C° 0,9 mm 3 m/s 763 mmHg 84%
    09:00 +20°C° 0,9 mm 3 m/s 763 mmHg 88%
    10:00 +20°C° 0 mm 2 m/s 764 mmHg 94%
    11:00 +20°C° 2,2 mm 3 m/s 763 mmHg 95%
    12:00 +20°C° 2,2 mm 3 m/s 763 mmHg 96%
    13:00 +19°C° 2,2 mm 4 m/s 763 mmHg 97%
    14:00 +19°C° 1,6 mm 5 m/s 763 mmHg 96%
    15:00 +17°C° 1,6 mm 6 m/s 763 mmHg 96%
    16:00 +16°C° 1,6 mm 7 m/s 763 mmHg 96%
    17:00 +16°C° 0,7 mm 7 m/s 764 mmHg 96%
    18:00 +16°C° 0,7 mm 7 m/s 764 mmHg 96%
    19:00 +16°C° 0,7 mm 7 m/s 765 mmHg 96%
    20:00 +15°C° 0,5 mm 7 m/s 765 mmHg 96%
    21:00 +15°C° 0,5 mm 6 m/s 765 mmHg 95%
    22:00 +15°C° 0,5 mm 6 m/s 766 mmHg 94%
    23:00 +15°C° 0,1 mm 6 m/s 765 mmHg 93%

    Demain, 21 Octobre, Samedi

    Heure Température Précipitation Vent Pression Humidité
    00:00 +14°C° 0,1 mm 6 m/s 765 mmHg 92%
    01:00 +14°C° 0,1 mm 6 m/s 765 mmHg 90%
    02:00 +14°C° 0 mm 6 m/s 765 mmHg 89%
    03:00 +13°C° 0 mm 6 m/s 765 mmHg 88%
    04:00 +13°C° 0 mm 5 m/s 765 mmHg 88%
    05:00 +13°C° 0,1 mm 5 m/s 765 mmHg 86%
    06:00 +14°C° 0,1 mm 5 m/s 765 mmHg 84%
    07:00 +14°C° 0,1 mm 5 m/s 765 mmHg 82%
    08:00 +15°C° 0,1 mm 5 m/s 765 mmHg 78%
    09:00 +15°C° 0,1 mm 5 m/s 765 mmHg 74%
    10:00 +16°C° 0,1 mm 5 m/s 765 mmHg 70%
    11:00 +17°C° 0,1 mm 5 m/s 764 mmHg 66%
    12:00 +19°C° 0,1 mm 5 m/s 763 mmHg 62%
    13:00 +19°C° 0,1 mm 5 m/s 763 mmHg 58%
    14:00 +19°C° 0,1 mm 4 m/s 762 mmHg 58%
    15:00 +19°C° 0,1 mm 4 m/s 762 mmHg 58%
    16:00 +19°C° 0,1 mm 4 m/s 762 mmHg 58%
    17:00 +17°C° 0 mm 4 m/s 762 mmHg 66%
    18:00 +16°C° 0 mm 3 m/s 762 mmHg 74%
    19:00 +14°C° 0 mm 2 m/s 762 mmHg 82%
    20:00 +13°C° 0 mm 2 m/s 762 mmHg 85%
    21:00 +13°C° 0 mm 2 m/s 762 mmHg 87%
    22:00 +12°C° 0 mm 1 m/s 762 mmHg 90%
    23:00 +12°C° 0 mm 1 m/s 762 mmHg 92%

    Après-demain, 22 Octobre, Dimanche

    Heure Température Précipitation Vent Pression Humidité
    00:00 +12°C° 0 mm 1 m/s 761 mmHg 93%
    01:00 +10°C° 0 mm 2 m/s 761 mmHg 95%
    02:00 +10°C° 0 mm 2 m/s 761 mmHg 96%
    03:00 +10°C° 0 mm 2 m/s 760 mmHg 96%
    04:00 +10°C° 0 mm 2 m/s 760 mmHg 97%
    05:00 +12°C° 0 mm 2 m/s 760 mmHg 90%
    06:00 +14°C° 0 mm 2 m/s 760 mmHg 83%
    07:00 +15°C° 0 mm 2 m/s 760 mmHg 77%
    08:00 +18°C° 0 mm 2 m/s 760 mmHg 67%
    09:00 +22°C° 0 mm 1 m/s 759 mmHg 57%
    10:00 +25°C° 0 mm 1 m/s 759 mmHg 46%
    11:00 +25°C° 0,1 mm 1 m/s 759 mmHg 47%
    12:00 +25°C° 0,1 mm 2 m/s 758 mmHg 47%
    13:00 +25°C° 0,1 mm 2 m/s 757 mmHg 48%
    14:00 +24°C° 0,4 mm 3 m/s 757 mmHg 56%
    15:00 +22°C° 0,4 mm 3 m/s 757 mmHg 65%
    16:00 +20°C° 0,4 mm 4 m/s 757 mmHg 73%
    17:00 +19°C° 0,1 mm 4 m/s 757 mmHg 77%
    18:00 +18°C° 0,1 mm 4 m/s 758 mmHg 82%
    19:00 +15°C° 0,1 mm 4 m/s 758 mmHg 86%
    20:00 +16°C° 1,1 mm 3 m/s 758 mmHg 89%
    21:00 +14°C° 1,1 mm 3 m/s 759 mmHg 93%
    22:00 +14°C° 1,1 mm 3 m/s 759 mmHg 96%
    23:00 +14°C° 2,4 mm 3 m/s 759 mmHg 96%

    23 Octobre, Lundi

    Heure Température Précipitation Vent Pression Humidité
    00:00 +14°C° 2,4 mm 3 m/s 759 mmHg 96%
    01:00 +14°C° 2,4 mm 3 m/s 759 mmHg 97%
    02:00 +14°C° 1 mm 3 m/s 759 mmHg 97%
    03:00 +13°C° 1 mm 3 m/s 759 mmHg 97%
    04:00 +14°C° 1 mm 2 m/s 759 mmHg 97%
    05:00 +14°C° 0,1 mm 3 m/s 760 mmHg 95%
    06:00 +14°C° 0,1 mm 3 m/s 760 mmHg 93%
    07:00 +16°C° 0,1 mm 3 m/s 761 mmHg 92%
    08:00 +17°C° 0,2 mm 4 m/s 761 mmHg 83%
    09:00 +19°C° 0,2 mm 4 m/s 761 mmHg 75%
    10:00 +20°C° 0,2 mm 5 m/s 761 mmHg 67%
    11:00 +21°C° 0,2 mm 5 m/s 761 mmHg 65%
    12:00 +21°C° 0,2 mm 5 m/s 761 mmHg 64%
    13:00 +22°C° 0,2 mm 5 m/s 760 mmHg 62%
    14:00 +22°C° 0,1 mm 4 m/s 760 mmHg 63%
    15:00 +21°C° 0,1 mm 4 m/s 760 mmHg 63%
    16:00 +21°C° 0,1 mm 3 m/s 760 mmHg 63%
    17:00 +19°C° 0 mm 3 m/s 761 mmHg 72%
    18:00 +18°C° 0 mm 3 m/s 761 mmHg 80%
    19:00 +16°C° 0 mm 2 m/s 762 mmHg 89%
    20:00 +15°C° 0 mm 2 m/s 762 mmHg 91%
    21:00 +15°C° 0 mm 2 m/s 763 mmHg 93%
    22:00 +14°C° 0 mm 2 m/s 763 mmHg 95%
    23:00 +14°C° 0 mm 2 m/s 763 mmHg 95%

    24 Octobre, Mardi

    Heure Température Précipitation Vent Pression Humidité
    00:00 +14°C° 0 mm 2 m/s 763 mmHg 96%
    01:00 +13°C° 0 mm 2 m/s 762 mmHg 97%
    02:00 +13°C° 0 mm 2 m/s 762 mmHg 97%
    03:00 +13°C° 0 mm 2 m/s 762 mmHg 97%
    04:00 +13°C° 0 mm 2 m/s 762 mmHg 97%
    05:00 +14°C° 0 mm 2 m/s 762 mmHg 90%
    06:00 +16°C° 0 mm 2 m/s 763 mmHg 84%
    07:00 +17°C° 0 mm 2 m/s 763 mmHg 77%
    08:00 +20°C° 0 mm 2 m/s 763 mmHg 65%
    09:00 +25°C° 0 mm 2 m/s 763 mmHg 53%
    10:00 +28°C° 0 mm 2 m/s 763 mmHg 40%
    11:00 +28°C° 0 mm 3 m/s 762 mmHg 37%
    12:00 +29°C° 0 mm 3 m/s 761 mmHg 35%
    13:00 +30°C° 0 mm 4 m/s 761 mmHg 32%
    14:00 +29°C° 0 mm 4 m/s 760 mmHg 35%
    15:00 +29°C° 0 mm 5 m/s 760 mmHg 39%
    16:00 +28°C° 0 mm 5 m/s 760 mmHg 42%
    17:00 +26°C° 0 mm 5 m/s 760 mmHg 51%
    18:00 +23°C° 0 mm 6 m/s 760 mmHg 60%
    19:00 +21°C° 0 mm 6 m/s 761 mmHg 69%
    20:00 +20°C° 0 mm 5 m/s 761 mmHg 74%
    21:00 +20°C° 0 mm 5 m/s 761 mmHg 79%
    22:00 +19°C° 0 mm 4 m/s 761 mmHg 83%
    23:00 +19°C° 0 mm 4 m/s 760 mmHg 81%

    25 Octobre, Mercredi

    Heure Température Précipitation Vent Pression Humidité
    00:00 +18°C° 0 mm 4 m/s 760 mmHg 78%
    01:00 +18°C° 0 mm 3 m/s 760 mmHg 76%
    02:00 +18°C° 0 mm 3 m/s 760 mmHg 71%
    03:00 +18°C° 0 mm 3 m/s 759 mmHg 67%
    04:00 +18°C° 0 mm 3 m/s 759 mmHg 63%
    05:00 +19°C° 0 mm 3 m/s 760 mmHg 61%
    06:00 +20°C° 0 mm 2 m/s 760 mmHg 58%
    07:00 +21°C° 0 mm 2 m/s 760 mmHg 56%
    08:00 +24°C° 0 mm 2 m/s 760 mmHg 49%
    09:00 +27°C° 0 mm 2 m/s 760 mmHg 41%
    10:00 +30°C° 0 mm 2 m/s 759 mmHg 34%
    11:00 +31°C° 0 mm 3 m/s 759 mmHg 31%
    12:00 +33°C° 0 mm 3 m/s 758 mmHg 29%
    13:00 +34°C° 0 mm 3 m/s 757 mmHg 26%
    14:00 +33°C° 0 mm 3 m/s 757 mmHg 32%
    15:00 +30°C° 0 mm 4 m/s 757 mmHg 39%
    16:00 +29°C° 0 mm 4 m/s 756 mmHg 45%
    17:00 +27°C° 0,1 mm 4 m/s 756 mmHg 54%
    18:00 +23°C° 0,1 mm 5 m/s 756 mmHg 62%
    19:00 +21°C° 0,1 mm 5 m/s 757 mmHg 71%
    20:00 +21°C° 0 mm 5 m/s 756 mmHg 72%
    21:00 +20°C° 0 mm 4 m/s 756 mmHg 72%
    22:00 +20°C° 0 mm 4 m/s 756 mmHg 73%
    23:00 +19°C° 0,4 mm 3 m/s 755 mmHg 77%
    Voir plus